This is the latest recevied weather packets stored in our database for station/object LX0APE-4. If no packets are shown the sender has not sent any weather packets the latest 10 day(s).
| Time | Temp. | Humidity | Pressure | Rain* | Wind** | Luminosity | Snow |
|---|---|---|---|---|---|---|---|
| 1777649521 | 37.78° C | 10% | 5019.3 hPa | 0 mm | - | - | - |
| 1777649221 | 37.78° C | 10% | 5019.3 hPa | 0 mm | - | - | - |
| 1777648921 | 37.22° C | 10% | 5019.4 hPa | 0 mm | - | - | - |
| 1777648621 | 36.67° C | 10% | 5019.2 hPa | 0 mm | - | - | - |
| 1777648321 | 35.56° C | 11% | 5019.4 hPa | 0 mm | - | - | - |
| 1777648021 | 36.11° C | 10% | 5019.4 hPa | 0 mm | - | - | - |
| 1777647721 | 36.67° C | 10% | 5019.5 hPa | 0 mm | - | - | - |
| 1777647421 | 36.67° C | 10% | 5019.5 hPa | 0 mm | - | - | - |
| 1777647125 | 37.22° C | 10% | 5019.3 hPa | 0 mm | - | - | - |
| 1777647121 | 37.22° C | 10% | 5019.3 hPa | 0 mm | - | - | - |
| 1777646821 | 37.22° C | 12% | 5019.4 hPa | 0 mm | - | - | - |
| 1777646521 | 36.67° C | 12% | 5019.6 hPa | 0 mm | - | - | - |
| 1777646221 | 36.67° C | 12% | 5019.4 hPa | 0 mm | - | - | - |
| 1777645921 | 36.67° C | 13% | 5019.5 hPa | 0 mm | - | - | - |
| 1777645621 | 36.11° C | 12% | 5019.6 hPa | 0 mm | - | - | - |
| 1777645326 | 36.11° C | 12% | 5019.6 hPa | 0 mm | - | - | - |
| 1777645321 | 36.11° C | 12% | 5019.6 hPa | 0 mm | - | - | - |
| 1777645021 | 36.11° C | 12% | 5019.5 hPa | 0 mm | - | - | - |
| 1777644721 | 35° C | 13% | 5019.6 hPa | 0 mm | - | - | - |
| 1777644421 | 35° C | 12% | 5019.7 hPa | 0 mm | - | - | - |
| 1777644121 | 34.44° C | 12% | 5019.7 hPa | 0 mm | - | - | - |
| 1777643821 | 34.44° C | 12% | 5019.7 hPa | 0 mm | - | - | - |
| 1777643521 | 34.44° C | 13% | 5019.8 hPa | 0 mm | - | - | - |
| 1777643221 | 33.89° C | 13% | 5019.8 hPa | 0 mm | - | - | - |
| 1777642921 | 33.89° C | 13% | 5019.9 hPa | 0 mm | - | - | - |
* Rain latest hour (hover to see other rain measurements)
** Current wind speed in m/s (hover to see current wind gust speed)